Regional Weather Roundup
Issued by NWS Sioux Falls, SD

Home | Current Version | Previous Version | Graphics & Text | Print | Product List | Glossary On
Versions: 1 2 3 4 5 6 7 8 9 10 11 12 13 14 15 16 17 18 19 20 21 22 23 24 25 26 27 28 29 30 31 32 33 34 35 36 37 38 39 40 41 42 43 44 45 46 47 48 49 50
000
ASUS43 KFSD 170910
RWRFSD

WEATHER ROUNDUP FOR SE SOUTH DAKOTA/SW MINNESOTA/NW IOWA
NATIONAL WEATHER SERVICE SIOUX FALLS SD
300 AM CST SAT FEB 17 2018

NOTE: "FAIR" INDICATES FEW OR NO CLOUDS BELOW 12,000 FEET WITH NO
SIGNIFICANT WEATHER AND OR OBSTRUCTIONS TO VISIBILITY.


SDZ038>040-050-052>070-171000-
SOUTHEAST SOUTH DAKOTA

CITY           SKY/WX    TMP DP  RH WIND       PRES   REMARKS
BROOKINGS      CLOUDY    25  20  81 S8        29.84F WCI  16
CHAMBERLAIN    CLOUDY    30  26  87 CALM      29.82F
HURON          CLOUDY    25  21  85 SE6       29.83F WCI  18
MADISON        CLOUDY    27  27 100 SW14G22   29.83F WCI  15
MITCHELL       LGT SNOW  30  27  88 S10       29.86F FOG     WCI  21
SIOUX FALLS    LGT SNOW  25  23  92 S12       29.87F FOG     WCI  14
WINNER         FAIR      30  25  81 SW6       29.81S WCI  24
YANKTON        MIX PCPN  30  19  63 CALM      29.88F
$$

MNZ071-072-080-081-089-090-097-098-171000-
SOUTHWEST MINNESOTA

CITY           SKY/WX    TMP DP  RH WIND       PRES   REMARKS
FAIRMONT       CLOUDY    22  15  75 SW18      29.93F WCI   7
JACKSON        CLOUDY    25  14  63 SW13G21   29.92F WCI  13
LUVERNE        CLOUDY    25  18  74 S9        29.90F WCI  15
MARSHALL       CLOUDY    27  18  69 SW23      29.85F WCI  12
MONTEVIDEO     CLOUDY    27  18  69 CALM      29.86S
PIPESTONE      FLURRIES  25  18  74 SW17      29.85F WCI  11
REDWOOD FALLS  CLOUDY    26  16  65 SW16      29.87F WCI  14
TRACY          CLOUDY    26  18  72 SW18G25   29.86F WCI  13
WINDOM         CLOUDY    25   7  46 S15G21    29.90F WCI  12
WORTHINGTON    CLOUDY    23  15  71 SW17      29.90F WCI   9
$$

IAZ001>003-012>014-020>022-031-032-NEZ013-014-SDZ071-171000-
NORTHWEST IOWA

CITY           SKY/WX    TMP DP  RH WIND       PRES   REMARKS
CHEROKEE       CLOUDY    25  14  63 S10       29.92F WCI  15
DENISON        CLOUDY    27  14  59 S12G18    29.97F WCI  16
ESTHERVILLE    CLOUDY    21  14  74 SW14      29.93F WCI   8
LE MARS        CLOUDY    25  18  74 S10       29.91F WCI  15
ORANGE CITY    CLOUDY    25  18  74 SW7       29.91S WCI  17
SHELDON        CLOUDY    25  16  68 SW9       29.90F WCI  15
SIOUX CITY     CLOUDY    28  17  63 S13       29.92F WCI  17
SPENCER        CLOUDY    24  14  65 SW8       29.94F WCI  15
STORM LAKE     CLOUDY    23  14  68 S14       29.93F WCI  11
$$

ABBREVIATIONS USED IN REMARKS
   TC - TEMPERATURE IN CELSIUS
  WCI - WIND CHILL INDEX
   HX - HEAT INDEX
  VSB - VISIBILITY





USA.gov is the U.S. government's official web portal to all federal, state and local government web resources and services.